Flag Weather past 2 weeks in Porta Westfalica, North Rhine-Westphalia, Germany

Now
37 °F

Passing clouds.


Feels Like: 31 °F
Forecast: 32 / 37 °F
Wind: 8 mph from East

Location: Bueckeburg

Current Time: Nov 28, 2014 at 7:01:55 AM

Latest Report: Nov 28, 2014 at 6:20 AM


Visibility: N/A

Pressure: 29.89 "Hg

Humidity: 81%

Dew point: 32 °F

Location of Porta WestfalicaLocation

Historic Weather in Porta Westfalica — Graph

°F

Porta Westfalica temperature yesterday

Maximum temperature yesterday: 41 °F (at 11:20 AM)
Minimum temperature yesterday: 37 °F (at 2:20 AM)
Average temperature yesterday: 39 °F

Past Weeks' High & Low Weather Summary

 TemperatureHumidityPressure
High57 °F (Nov 23, 1:20 PM)100% (Nov 13, 9:20 AM)30.36 "Hg (Nov 13, 9:20 AM)
Low36 °F (Nov 21, 7:20 AM)59% (Nov 23, 2:20 PM)29.50 "Hg (Nov 16, 11:20 AM)
Average46 °F84%29.99 "Hg
* Reported Nov 13 5:20 AM — Nov 28 5:20 AM, Porta Westfalica, Weather by CustomWeather, © 2014

Note: Actual official high and low records may vary slightly from our data, if they occured in-between our weather recording intervals... More about our weather records

Advertising

Porta Westfalica weather history for previous 24 hours

 ConditionsComfort  
Time TempWeatherWind HumidityBarometerVisibility
5:20 AM
Nov 28
37 °FPassing clouds.8 mph81%29.89 "Hg6 mi
4:20 AM37 °FPassing clouds.5 mph81%29.89 "Hg4 mi
3:20 AM36 °FPartly cloudy.5 mph87%29.86 "Hg4 mi
2:20 AM37 °FPassing clouds.9 mph81%29.86 "HgN/A
1:20 AM37 °FPassing clouds.7 mph81%29.86 "HgN/A
12:20 AM39 °FPassing clouds.5 mph75%29.86 "HgN/A
11:20 PM
Nov 27
39 °FPassing clouds.6 mph75%29.86 "HgN/A
10:20 PM39 °FPassing clouds.6 mph75%29.86 "HgN/A
9:20 PM39 °FPassing clouds.6 mph75%29.86 "HgN/A
8:20 PM39 °FPassing clouds.7 mph75%29.86 "HgN/A
7:20 PM39 °FPassing clouds.9 mph75%29.83 "HgN/A
6:20 PM39 °FPassing clouds.5 mph75%29.83 "HgN/A
5:20 PM39 °FPassing clouds.7 mph81%29.83 "HgN/A
4:20 PM39 °FPartly cloudy.8 mph81%29.83 "HgN/A
3:20 PM39 °FBroken clouds.7 mph81%29.83 "HgN/A
2:20 PM41 °FBroken clouds.5 mph76%29.83 "HgN/A
1:20 PM41 °FPartly sunny.5 mph70%29.86 "HgN/A
12:20 PM41 °FBroken clouds.7 mph70%29.86 "HgN/A
11:20 AM41 °FScattered clouds.10 mph70%29.86 "HgN/A
10:20 AM39 °FScattered clouds.8 mph75%29.89 "HgN/A
9:20 AM39 °FScattered clouds.6 mph75%29.89 "HgN/A
8:20 AM39 °FPartly sunny.10 mph75%29.89 "HgN/A
7:20 AM37 °FPassing clouds.8 mph81%29.89 "HgN/A
Weather by CustomWeather, © 2014

See weather overviewHow to use our weather pages